Saint Bonnet de Bellac- Haute Vienne - France
Donnes mto: lundi, 24/09/2012
Date Horaire Temp. E. Hum. E. P.atmo. Pluie Vent Direction Direction Ensoleilleme Solaire P. de rose Temp au vent Rafales
24/09/2012 00:00 17,5 C 89 % 1000,0 hPa 0,0 mm 8,3 km/h (2 Bft) S-SE 157 0 min 0 W/m 15,7 C 17,5 C 16,6 km/h (3 Bft)
24/09/2012 00:10 17,8 C 89 % 999,8 hPa 0,0 mm 7,9 km/h (2 Bft) E-SE 112 0 min 0 W/m 16,0 C 17,8 C 9,0 km/h (2 Bft)
24/09/2012 00:20 17,8 C 88 % 999,7 hPa 0,0 mm 13,0 km/h (3 Bft) S-SE 157 0 min 0 W/m 15,8 C 17,8 C 22,3 km/h (4 Bft)
24/09/2012 00:30 18,0 C 88 % 999,5 hPa 0,0 mm 9,4 km/h (2 Bft) S 180 0 min 0 W/m 16,0 C 18,0 C 10,8 km/h (2 Bft)
24/09/2012 00:40 18,1 C 88 % 999,6 hPa 0,0 mm 11,2 km/h (2 Bft) S-SE 157 0 min 0 W/m 16,1 C 18,1 C 17,6 km/h (3 Bft)
24/09/2012 00:50 18,1 C 88 % 999,0 hPa 0,0 mm 10,8 km/h (2 Bft) E 90 0 min 0 W/m 16,1 C 18,1 C 13,7 km/h (3 Bft)
24/09/2012 01:00 18,1 C 87 % 999,1 hPa 0,0 mm 10,4 km/h (2 Bft) E 90 0 min 0 W/m 15,9 C 18,1 C 17,3 km/h (3 Bft)
24/09/2012 01:10 18,2 C 87 % 998,9 hPa 0,0 mm 10,8 km/h (2 Bft) S-SO 202 0 min 0 W/m 16,0 C 18,2 C 10,8 km/h (2 Bft)
24/09/2012 01:20 18,3 C 86 % 998,7 hPa 0,0 mm 10,4 km/h (2 Bft) S 180 0 min 0 W/m 15,9 C 18,3 C 14,8 km/h (3 Bft)
24/09/2012 01:30 18,5 C 86 % 998,5 hPa 0,0 mm 9,0 km/h (2 Bft) S-SO 202 0 min 0 W/m 16,1 C 18,5 C 15,5 km/h (3 Bft)
24/09/2012 01:40 18,6 C 85 % 998,3 hPa 0,0 mm 14,8 km/h (3 Bft) S 180 0 min 0 W/m 16,0 C 18,6 C 21,2 km/h (4 Bft)
24/09/2012 01:50 18,6 C 85 % 998,3 hPa 0,0 mm 9,7 km/h (2 Bft) S-SO 202 0 min 0 W/m 16,0 C 18,6 C 11,2 km/h (2 Bft)
24/09/2012 02:00 18,6 C 85 % 998,6 hPa 0,0 mm 6,8 km/h (2 Bft) S-SO 202 0 min 0 W/m 16,0 C 18,6 C 10,8 km/h (2 Bft)
24/09/2012 02:10 18,6 C 83 % 998,3 hPa 0,0 mm 15,5 km/h (3 Bft) S-SO 202 0 min 0 W/m 15,7 C 18,6 C 24,8 km/h (4 Bft)
24/09/2012 02:20 18,8 C 82 % 998,3 hPa 0,0 mm 13,3 km/h (3 Bft) O 270 0 min 0 W/m 15,7 C 18,8 C 13,3 km/h (3 Bft)
24/09/2012 02:30 18,9 C 80 % 998,2 hPa 0,0 mm 16,2 km/h (3 Bft) SO 225 0 min 0 W/m 15,4 C 18,9 C 18,4 km/h (3 Bft)
24/09/2012 02:40 18,9 C 78 % 998,1 hPa 0,0 mm 14,8 km/h (3 Bft) S-SO 202 0 min 0 W/m 15,0 C 18,9 C 21,2 km/h (4 Bft)
24/09/2012 02:50 19,0 C 78 % 998,1 hPa 0,0 mm 10,1 km/h (2 Bft) S 180 0 min 0 W/m 15,1 C 19,0 C 10,1 km/h (2 Bft)
24/09/2012 03:02 18,9 C 77 % 997,9 hPa 0,0 mm 11,5 km/h (2 Bft) S-SE 157 0 min 0 W/m 14,8 C 18,9 C 17,3 km/h (3 Bft)
24/09/2012 03:10 18,9 C 76 % 998,1 hPa 0,0 mm 13,3 km/h (3 Bft) S-SO 202 0 min 0 W/m 14,6 C 18,9 C 20,5 km/h (4 Bft)
24/09/2012 03:20 18,9 C 76 % 998,0 hPa 0,0 mm 9,7 km/h (2 Bft) S-SO 202 0 min 0 W/m 14,6 C 18,9 C 15,1 km/h (3 Bft)
24/09/2012 03:30 18,9 C 75 % 998,0 hPa 0,0 mm 11,9 km/h (2 Bft) S-SO 202 0 min 0 W/m 14,4 C 18,9 C 20,5 km/h (4 Bft)
24/09/2012 03:40 19,1 C 75 % 997,9 hPa 0,0 mm 11,5 km/h (2 Bft) O-SO 247 0 min 0 W/m 14,6 C 19,1 C 19,1 km/h (3 Bft)
24/09/2012 03:50 19,1 C 75 % 997,8 hPa 0,0 mm 14,4 km/h (3 Bft) O-SO 247 0 min 0 W/m 14,6 C 19,1 C 18,0 km/h (3 Bft)
24/09/2012 04:00 19,1 C 74 % 997,6 hPa 0,0 mm 20,5 km/h (4 Bft) S 180 0 min 0 W/m 14,4 C 19,1 C 30,2 km/h (5 Bft)
24/09/2012 04:10 19,1 C 74 % 997,4 hPa 0,0 mm 14,8 km/h (3 Bft) S 180 0 min 0 W/m 14,4 C 19,1 C 21,2 km/h (4 Bft)
24/09/2012 04:20 18,9 C 74 % 997,3 hPa 0,0 mm 21,2 km/h (4 Bft) SO 225 0 min 0 W/m 14,2 C 18,9 C 29,5 km/h (5 Bft)
24/09/2012 04:30 18,8 C 75 % 997,2 hPa 0,0 mm 12,6 km/h (3 Bft) S-SE 157 0 min 0 W/m 14,3 C 18,8 C 19,1 km/h (3 Bft)
24/09/2012 04:40 18,6 C 75 % 997,2 hPa 0,0 mm 12,6 km/h (3 Bft) SO 225 0 min 0 W/m 14,1 C 18,6 C 19,8 km/h (3 Bft)
24/09/2012 04:50 18,6 C 76 % 997,0 hPa 0,0 mm 15,1 km/h (3 Bft) SO 225 0 min 0 W/m 14,3 C 18,6 C 20,9 km/h (4 Bft)
24/09/2012 05:00 18,6 C 75 % 996,8 hPa 0,0 mm 25,6 km/h (4 Bft) S 180 0 min 0 W/m 14,1 C 18,6 C 35,6 km/h (5 Bft)
24/09/2012 05:10 18,6 C 75 % 996,8 hPa 0,0 mm 11,2 km/h (2 Bft) SO 225 0 min 0 W/m 14,1 C 18,6 C 17,6 km/h (3 Bft)
24/09/2012 05:20 18,5 C 76 % 996,8 hPa 0,0 mm 18,7 km/h (3 Bft) O-SO 247 0 min 0 W/m 14,2 C 18,5 C 27,0 km/h (5 Bft)
24/09/2012 05:30 18,2 C 78 % 996,8 hPa 0,0 mm 13,3 km/h (3 Bft) SO 225 0 min 0 W/m 14,3 C 18,2 C 19,8 km/h (3 Bft)
24/09/2012 05:40 17,6 C 81 % 997,1 hPa 0,0 mm 14,8 km/h (3 Bft) S-SO 202 0 min 0 W/m 14,3 C 17,6 C 22,7 km/h (4 Bft)
24/09/2012 05:50 17,1 C 84 % 997,1 hPa 0,0 mm 12,2 km/h (2 Bft) SO 225 0 min 0 W/m 14,4 C 17,1 C 16,9 km/h (3 Bft)
24/09/2012 06:00 16,8 C 86 % 997,2 hPa 0,0 mm 5,4 km/h (2 Bft) SO 225 0 min 0 W/m 14,4 C 16,8 C 10,4 km/h (2 Bft)
24/09/2012 06:10 16,6 C 87 % 997,3 hPa 0,0 mm 19,1 km/h (3 Bft) SO 225 0 min 0 W/m 14,4 C 16,6 C 28,8 km/h (5 Bft)
24/09/2012 06:20 16,6 C 87 % 997,4 hPa 0,0 mm 10,4 km/h (2 Bft) O-SO 247 0 min 0 W/m 14,4 C 16,6 C 18,4 km/h (3 Bft)
24/09/2012 06:30 16,6 C 87 % 997,5 hPa 0,0 mm 14,0 km/h (3 Bft) SO 225 0 min 0 W/m 14,4 C 16,6 C 22,7 km/h (4 Bft)
24/09/2012 06:40 16,6 C 87 % 997,5 hPa 0,0 mm 17,3 km/h (3 Bft) SO 225 0 min 0 W/m 14,4 C 16,6 C 28,8 km/h (5 Bft)
24/09/2012 06:50 16,6 C 87 % 997,6 hPa 0,0 mm 10,8 km/h (2 Bft) O-SO 247 0 min 0 W/m 14,4 C 16,6 C 12,2 km/h (2 Bft)
24/09/2012 07:00 16,6 C 88 % 997,7 hPa 0,0 mm 13,3 km/h (3 Bft) SO 225 0 min 0 W/m 14,6 C 16,6 C 15,1 km/h (3 Bft)
24/09/2012 07:10 16,5 C 89 % 997,8 hPa 0,0 mm 10,8 km/h (2 Bft) S-SO 202 0 min 0 W/m 14,7 C 16,5 C 19,8 km/h (3 Bft)
24/09/2012 07:20 16,4 C 89 % 998,1 hPa 0,0 mm 11,9 km/h (2 Bft) S-SO 202 0 min 0 W/m 14,6 C 16,4 C 15,8 km/h (3 Bft)
24/09/2012 07:30 16,4 C 89 % 998,4 hPa 0,0 mm 15,8 km/h (3 Bft) SO 225 0 min 0 W/m 14,6 C 16,4 C 22,0 km/h (4 Bft)
24/09/2012 07:40 16,4 C 89 % 998,9 hPa 0,0 mm 14,4 km/h (3 Bft) SO 225 0 min 0 W/m 14,6 C 16,4 C 29,9 km/h (5 Bft)
24/09/2012 07:50 16,2 C 90 % 999,2 hPa 0,0 mm 17,3 km/h (3 Bft) O-SO 247 0 min 0 W/m 14,6 C 16,2 C 33,1 km/h (5 Bft)
24/09/2012 08:00 16,1 C 90 % 999,6 hPa 0,0 mm 12,6 km/h (3 Bft) SO 225 0 min 0 W/m 14,5 C 16,1 C 23,4 km/h (4 Bft)
24/09/2012 08:10 15,8 C 89 % 999,9 hPa 0,0 mm 23,8 km/h (4 Bft) O-SO 247 0 min 0 W/m 14,0 C 15,8 C 28,8 km/h (5 Bft)
24/09/2012 08:20 15,6 C 88 % 1000,4 hPa 0,0 mm 10,4 km/h (2 Bft) O 270 0 min 0 W/m 13,6 C 15,6 C 13,7 km/h (3 Bft)
24/09/2012 08:30 15,4 C 88 % 1000,7 hPa 0,0 mm 14,8 km/h (3 Bft) O-NO 292 0 min 0 W/m 13,4 C 15,4 C 15,1 km/h (3 Bft)
24/09/2012 08:40 15,1 C 88 % 1001,1 hPa 0,0 mm 19,1 km/h (3 Bft) SO 225 0 min 0 W/m 13,1 C 15,1 C 31,0 km/h (5 Bft)
24/09/2012 08:50 14,8 C 88 % 1001,6 hPa 0,0 mm 15,5 km/h (3 Bft) S-SO 202 0 min 0 W/m 12,8 C 14,8 C 15,5 km/h (3 Bft)
24/09/2012 09:00 14,6 C 88 % 1002,0 hPa 0,0 mm 13,7 km/h (3 Bft) O-SO 247 0 min 0 W/m 12,6 C 14,6 C 16,2 km/h (3 Bft)
24/09/2012 09:10 14,5 C 87 % 1002,3 hPa 0,0 mm 6,8 km/h (2 Bft) S-SO 202 0 min 0 W/m 12,4 C 14,5 C 13,0 km/h (3 Bft)
24/09/2012 09:20 14,5 C 87 % 1002,5 hPa 0,0 mm 12,6 km/h (3 Bft) O 270 0 min 0 W/m 12,4 C 14,5 C 18,0 km/h (3 Bft)
24/09/2012 09:30 14,7 C 87 % 1002,9 hPa 0,0 mm 8,3 km/h (2 Bft) O 270 0 min 0 W/m 12,6 C 14,7 C 22,0 km/h (4 Bft)
24/09/2012 09:40 14,8 C 86 % 1003,0 hPa 0,0 mm 11,2 km/h (2 Bft) SO 225 0 min 0 W/m 12,5 C 14,8 C 19,8 km/h (3 Bft)
24/09/2012 09:50 14,9 C 84 % 1003,4 hPa 0,0 mm 7,9 km/h (2 Bft) O-SO 247 0 min 0 W/m 12,2 C 14,9 C 14,0 km/h (3 Bft)
24/09/2012 10:00 15,1 C 83 % 1003,8 hPa 0,0 mm 15,5 km/h (3 Bft) O-SO 247 0 min 0 W/m 12,2 C 15,1 C 22,7 km/h (4 Bft)
24/09/2012 10:10 15,1 C 84 % 1004,1 hPa 0,0 mm 8,3 km/h (2 Bft) O-SO 247 0 min 0 W/m 12,4 C 15,1 C 8,3 km/h (2 Bft)
24/09/2012 10:20 14,9 C 85 % 1004,2 hPa 0,0 mm 8,3 km/h (2 Bft) O-SO 247 0 min 0 W/m 12,4 C 14,9 C 11,2 km/h (2 Bft)
24/09/2012 10:30 15,1 C 84 % 1004,5 hPa 0,0 mm 7,6 km/h (2 Bft) SO 225 0 min 0 W/m 12,4 C 15,1 C 15,8 km/h (3 Bft)
24/09/2012 10:40 14,9 C 85 % 1004,8 hPa 0,0 mm 9,0 km/h (2 Bft) S-SO 202 0 min 0 W/m 12,4 C 14,9 C 9,0 km/h (2 Bft)
24/09/2012 10:50 14,8 C 85 % 1005,1 hPa 0,0 mm 7,2 km/h (2 Bft) S-SO 202 0 min 0 W/m 12,3 C 14,8 C 10,1 km/h (2 Bft)
24/09/2012 11:00 15,5 C 83 % 1005,4 hPa 0,0 mm 9,0 km/h (2 Bft) SO 225 0 min 0 W/m 12,6 C 15,5 C 11,9 km/h (2 Bft)
24/09/2012 11:10 16,3 C 78 % 1005,8 hPa 0,0 mm 8,6 km/h (2 Bft) O 270 0 min 0 W/m 12,5 C 16,3 C 19,4 km/h (3 Bft)
24/09/2012 11:20 16,9 C 75 % 1005,8 hPa 0,0 mm 8,3 km/h (2 Bft) O 270 0 min 0 W/m 12,4 C 16,9 C 12,2 km/h (2 Bft)
24/09/2012 11:30 17,8 C 72 % 1006,1 hPa 0,0 mm 5,8 km/h (2 Bft) S 180 0 min 0 W/m 12,7 C 17,8 C 8,6 km/h (2 Bft)
24/09/2012 11:40 17,8 C 67 % 1006,3 hPa 0,0 mm 10,1 km/h (2 Bft) O-NO 292 0 min 0 W/m 11,6 C 17,8 C 16,6 km/h (3 Bft)
24/09/2012 11:50 17,5 C 65 % 1006,3 hPa 0,0 mm 7,2 km/h (2 Bft) SO 225 0 min 0 W/m 10,8 C 17,5 C 11,2 km/h (2 Bft)
24/09/2012 12:00 17,8 C 66 % 1006,5 hPa 0,0 mm 11,9 km/h (2 Bft) S-SE 157 0 min 0 W/m 11,4 C 17,8 C 22,0 km/h (4 Bft)
24/09/2012 12:10 17,8 C 65 % 1006,6 hPa 0,0 mm 5,0 km/h (1 Bft) O 270 0 min 0 W/m 11,1 C 17,8 C 8,3 km/h (2 Bft)
24/09/2012 12:20 17,9 C 66 % 1006,6 hPa 0,0 mm 3,2 km/h (1 Bft) O-SO 247 0 min 0 W/m 11,5 C 17,9 C 3,2 km/h (1 Bft)
24/09/2012 12:30 18,2 C 65 % 1006,6 hPa 0,0 mm 10,1 km/h (2 Bft) O-SO 247 0 min 0 W/m 11,5 C 18,2 C 27,4 km/h (5 Bft)
24/09/2012 12:40 17,8 C 65 % 1006,5 hPa 0,0 mm 11,5 km/h (2 Bft) S-SO 202 0 min 0 W/m 11,1 C 17,8 C 22,3 km/h (4 Bft)
24/09/2012 12:50 17,5 C 68 % 1006,8 hPa 0,0 mm 6,1 km/h (2 Bft) SO 225 0 min 0 W/m 11,5 C 17,5 C 16,6 km/h (3 Bft)
24/09/2012 13:00 17,2 C 68 % 1006,9 hPa 0,0 mm 16,6 km/h (3 Bft) S-SO 202 0 min 0 W/m 11,2 C 17,2 C 19,8 km/h (3 Bft)
24/09/2012 13:10 16,9 C 70 % 1007,1 hPa 0,0 mm 7,9 km/h (2 Bft) S-SO 202 0 min 0 W/m 11,4 C 16,9 C 9,7 km/h (2 Bft)
24/09/2012 13:20 16,6 C 74 % 1007,2 hPa 0,0 mm 7,9 km/h (2 Bft) O-SO 247 0 min 0 W/m 11,9 C 16,6 C 13,3 km/h (3 Bft)
24/09/2012 13:30 16,3 C 76 % 1007,5 hPa 0,0 mm 12,2 km/h (2 Bft) S-SO 202 0 min 0 W/m 12,1 C 16,3 C 25,6 km/h (4 Bft)
24/09/2012 13:40 15,5 C 79 % 1008,1 hPa 0,0 mm 16,9 km/h (3 Bft) SO 225 0 min 0 W/m 11,9 C 15,5 C 24,8 km/h (4 Bft)
24/09/2012 13:50 14,3 C 83 % 1007,9 hPa 0,0 mm 10,8 km/h (2 Bft) SO 225 0 min 0 W/m 11,5 C 14,3 C 18,0 km/h (3 Bft)
24/09/2012 14:00 14,1 C 85 % 1007,9 hPa 0,0 mm 10,8 km/h (2 Bft) O-SO 247 0 min 0 W/m 11,6 C 14,1 C 13,0 km/h (3 Bft)
24/09/2012 14:10 14,3 C 85 % 1007,7 hPa 0,0 mm 7,9 km/h (2 Bft) S 180 0 min 0 W/m 11,8 C 14,3 C 9,7 km/h (2 Bft)
24/09/2012 14:20 15,1 C 85 % 1007,6 hPa 0,0 mm 8,6 km/h (2 Bft) SO 225 0 min 0 W/m 12,6 C 15,1 C 8,6 km/h (2 Bft)
24/09/2012 14:30 15,7 C 84 % 1007,6 hPa 0,0 mm 6,5 km/h (2 Bft) O 270 0 min 0 W/m 13,0 C 15,7 C 10,1 km/h (2 Bft)
24/09/2012 14:40 16,3 C 80 % 1007,6 hPa 0,0 mm 10,4 km/h (2 Bft) S-SO 202 0 min 0 W/m 12,8 C 16,3 C 15,1 km/h (3 Bft)
24/09/2012 14:50 16,9 C 77 % 1007,7 hPa 0,0 mm 12,6 km/h (3 Bft) O-SO 247 0 min 0 W/m 12,8 C 16,9 C 19,8 km/h (3 Bft)
24/09/2012 15:00 16,9 C 77 % 1007,5 hPa 0,0 mm 6,8 km/h (2 Bft) O-SO 247 0 min 0 W/m 12,8 C 16,9 C 11,5 km/h (2 Bft)
24/09/2012 15:10 16,9 C 77 % 1007,3 hPa 0,0 mm 6,1 km/h (2 Bft) O-SO 247 0 min 0 W/m 12,8 C 16,9 C 7,2 km/h (2 Bft)
24/09/2012 15:20 17,1 C 76 % 1007,5 hPa 0,0 mm 9,4 km/h (2 Bft) S 180 0 min 0 W/m 12,8 C 17,1 C 11,2 km/h (2 Bft)
24/09/2012 15:30 17,6 C 75 % 1007,3 hPa 0,0 mm 9,0 km/h (2 Bft) SO 225 0 min 0 W/m 13,1 C 17,6 C 14,0 km/h (3 Bft)
24/09/2012 15:40 17,9 C 71 % 1007,3 hPa 0,0 mm 11,5 km/h (2 Bft) O-SO 247 0 min 0 W/m 12,6 C 17,9 C 20,2 km/h (4 Bft)
24/09/2012 15:50 19,3 C 68 % 1007,2 hPa 127,7 mm 8,6 km/h (2 Bft) O-SO 247 0 min 0 W/m 13,2 C 19,3 C 13,3 km/h (3 Bft)
24/09/2012 16:00 18,6 C 69 % 1007,0 hPa 0,0 mm 11,5 km/h (2 Bft) SO 225 0 min 0 W/m 12,8 C 18,6 C 18,0 km/h (3 Bft)
24/09/2012 16:20 17,9 C 70 % 1006,9 hPa 0,0 mm 13,3 km/h (3 Bft) SO 225 0 min 0 W/m 12,3 C 17,9 C 14,0 km/h (3 Bft)
24/09/2012 16:30 18,3 C 68 % 1006,7 hPa 0,0 mm 21,2 km/h (4 Bft) S-SO 202 0 min 0 W/m 12,3 C 18,3 C 33,1 km/h (5 Bft)
24/09/2012 16:40 18,4 C 68 % 1006,6 hPa 0,0 mm 9,7 km/h (2 Bft) SO 225 0 min 0 W/m 12,4 C 18,4 C 12,2 km/h (2 Bft)
24/09/2012 16:50 18,6 C 69 % 1006,6 hPa 0,0 mm 13,3 km/h (3 Bft) SO 225 0 min 0 W/m 12,8 C 18,6 C 17,6 km/h (3 Bft)
24/09/2012 17:00 18,4 C 67 % 1006,7 hPa 0,0 mm 9,7 km/h (2 Bft) O-SO 247 0 min 0 W/m 12,2 C 18,4 C 17,3 km/h (3 Bft)
24/09/2012 17:10 18,2 C 67 % 1006,5 hPa 0,0 mm 8,3 km/h (2 Bft) S 180 0 min 0 W/m 12,0 C 18,2 C 16,2 km/h (3 Bft)
24/09/2012 17:20 17,8 C 71 % 1006,8 hPa 0,0 mm 7,6 km/h (2 Bft) O-SO 247 0 min 0 W/m 12,5 C 17,8 C 9,7 km/h (2 Bft)
24/09/2012 17:30 16,9 C 74 % 1006,8 hPa 0,0 mm 9,0 km/h (2 Bft) O-SO 247 0 min 0 W/m 12,2 C 16,9 C 9,0 km/h (2 Bft)
24/09/2012 17:40 16,1 C 79 % 1006,8 hPa 0,0 mm 8,6 km/h (2 Bft) SO 225 0 min 0 W/m 12,5 C 16,1 C 12,2 km/h (2 Bft)
24/09/2012 17:50 15,4 C 80 % 1006,6 hPa 0,0 mm 10,4 km/h (2 Bft) S-SO 202 0 min 0 W/m 12,0 C 15,4 C 17,6 km/h (3 Bft)
24/09/2012 18:00 15,3 C 82 % 1006,5 hPa 0,0 mm 13,0 km/h (3 Bft) SO 225 0 min 0 W/m 12,2 C 15,3 C 18,4 km/h (3 Bft)
24/09/2012 18:10 15,4 C 83 % 1006,3 hPa 0,0 mm 9,0 km/h (2 Bft) S-SO 202 0 min 0 W/m 12,5 C 15,4 C 18,4 km/h (3 Bft)
24/09/2012 18:20 15,4 C 83 % 1006,4 hPa 0,0 mm 7,2 km/h (2 Bft) O-SO 247 0 min 0 W/m 12,5 C 15,4 C 13,0 km/h (3 Bft)
24/09/2012 18:30 15,4 C 83 % 1006,5 hPa 0,0 mm 9,0 km/h (2 Bft) S-SO 202 0 min 0 W/m 12,5 C 15,4 C 16,9 km/h (3 Bft)
24/09/2012 18:40 15,5 C 83 % 1006,4 hPa 0,0 mm 5,8 km/h (2 Bft) SO 225 0 min 0 W/m 12,6 C 15,5 C 10,4 km/h (2 Bft)
24/09/2012 18:50 15,5 C 84 % 1006,3 hPa 0,0 mm 5,4 km/h (2 Bft) SO 225 0 min 0 W/m 12,8 C 15,5 C 10,4 km/h (2 Bft)
24/09/2012 19:00 15,4 C 84 % 1006,3 hPa 0,0 mm 6,1 km/h (2 Bft) SO 225 0 min 0 W/m 12,7 C 15,4 C 12,6 km/h (3 Bft)
24/09/2012 19:10 15,4 C 85 % 1006,2 hPa 0,0 mm 9,4 km/h (2 Bft) SO 225 0 min 0 W/m 12,9 C 15,4 C 9,4 km/h (2 Bft)
24/09/2012 19:20 15,3 C 86 % 1006,2 hPa 0,0 mm 10,1 km/h (2 Bft) S-SO 202 0 min 0 W/m 13,0 C 15,3 C 14,8 km/h (3 Bft)
24/09/2012 19:30 15,0 C 87 % 1006,3 hPa 0,8 mm 11,9 km/h (2 Bft) O-SO 247 0 min 0 W/m 12,9 C 15,0 C 14,4 km/h (3 Bft)
24/09/2012 19:40 14,4 C 87 % 1006,3 hPa 0,0 mm 14,4 km/h (3 Bft) S-SO 202 0 min 0 W/m 12,3 C 14,4 C 19,8 km/h (3 Bft)
24/09/2012 19:50 14,0 C 88 % 1006,1 hPa 0,0 mm 11,9 km/h (2 Bft) O-SO 247 0 min 0 W/m 12,0 C 14,0 C 22,7 km/h (4 Bft)
24/09/2012 20:00 13,8 C 88 % 1006,1 hPa 0,0 mm 14,4 km/h (3 Bft) S-SO 202 0 min 0 W/m 11,8 C 13,8 C 20,2 km/h (4 Bft)
24/09/2012 20:10 13,8 C 88 % 1006,0 hPa 0,0 mm 10,4 km/h (2 Bft) SO 225 0 min 0 W/m 11,8 C 13,8 C 15,1 km/h (3 Bft)
24/09/2012 20:20 13,8 C 89 % 1006,0 hPa 0,0 mm 8,6 km/h (2 Bft) S 180 0 min 0 W/m 12,0 C 13,8 C 13,0 km/h (3 Bft)
24/09/2012 20:30 13,8 C 89 % 1006,2 hPa 0,0 mm 10,8 km/h (2 Bft) S-SO 202 0 min 0 W/m 12,0 C 13,8 C 18,0 km/h (3 Bft)
24/09/2012 20:40 13,9 C 90 % 1006,3 hPa 0,0 mm 9,0 km/h (2 Bft) S-SO 202 0 min 0 W/m 12,3 C 13,9 C 11,5 km/h (2 Bft)
24/09/2012 20:50 13,9 C 90 % 1006,2 hPa 0,0 mm 6,8 km/h (2 Bft) S-SO 202 0 min 0 W/m 12,3 C 13,9 C 10,8 km/h (2 Bft)
24/09/2012 21:00 14,1 C 89 % 1006,3 hPa 0,0 mm 10,8 km/h (2 Bft) SO 225 0 min 0 W/m 12,3 C 14,1 C 20,5 km/h (4 Bft)
24/09/2012 21:10 14,2 C 89 % 1006,1 hPa 0,0 mm 8,6 km/h (2 Bft) S-SO 202 0 min 0 W/m 12,4 C 14,2 C 14,0 km/h (3 Bft)
24/09/2012 21:20 14,2 C 89 % 1006,0 hPa 0,0 mm 11,2 km/h (2 Bft) SO 225 0 min 0 W/m 12,4 C 14,2 C 18,0 km/h (3 Bft)
24/09/2012 21:30 14,1 C 88 % 1005,7 hPa 0,0 mm 8,3 km/h (2 Bft) S-SO 202 0 min 0 W/m 12,1 C 14,1 C 9,4 km/h (2 Bft)
24/09/2012 21:40 14,1 C 88 % 1005,7 hPa 0,0 mm 10,1 km/h (2 Bft) S-SE 157 0 min 0 W/m 12,1 C 14,1 C 14,8 km/h (3 Bft)
24/09/2012 21:50 14,0 C 88 % 1005,5 hPa 0,0 mm 11,2 km/h (2 Bft) S-SO 202 0 min 0 W/m 12,0 C 14,0 C 16,6 km/h (3 Bft)
24/09/2012 22:00 13,9 C 88 % 1005,3 hPa 0,0 mm 9,4 km/h (2 Bft) S-SO 202 0 min 0 W/m 11,9 C 13,9 C 13,3 km/h (3 Bft)
24/09/2012 22:10 13,9 C 88 % 1005,3 hPa 0,0 mm 13,3 km/h (3 Bft) SO 225 0 min 0 W/m 11,9 C 13,9 C 21,2 km/h (4 Bft)
24/09/2012 22:20 13,8 C 88 % 1005,2 hPa 0,0 mm 11,5 km/h (2 Bft) S-SO 202 0 min 0 W/m 11,8 C 13,8 C 15,5 km/h (3 Bft)
24/09/2012 22:30 13,9 C 88 % 1005,0 hPa 0,0 mm 9,4 km/h (2 Bft) S-SO 202 0 min 0 W/m 11,9 C 13,9 C 14,0 km/h (3 Bft)
24/09/2012 22:40 13,9 C 88 % 1004,7 hPa 0,0 mm 13,7 km/h (3 Bft) SO 225 0 min 0 W/m 11,9 C 13,9 C 22,0 km/h (4 Bft)
24/09/2012 22:50 13,9 C 88 % 1004,7 hPa 0,0 mm 11,9 km/h (2 Bft) O-SO 247 0 min 0 W/m 11,9 C 13,9 C 16,2 km/h (3 Bft)
24/09/2012 23:00 14,0 C 88 % 1004,7 hPa 0,0 mm 10,8 km/h (2 Bft) SO 225 0 min 0 W/m 12,0 C 14,0 C 18,7 km/h (3 Bft)
24/09/2012 23:10 14,2 C 87 % 1004,7 hPa 0,0 mm 15,5 km/h (3 Bft) S 180 0 min 0 W/m 12,1 C 14,2 C 20,9 km/h (4 Bft)
24/09/2012 23:20 14,3 C 87 % 1004,6 hPa 0,0 mm 11,2 km/h (2 Bft) S 180 0 min 0 W/m 12,2 C 14,3 C 17,3 km/h (3 Bft)
24/09/2012 23:30 14,4 C 86 % 1004,5 hPa 0,0 mm 10,1 km/h (2 Bft) S 180 0 min 0 W/m 12,1 C 14,4 C 16,2 km/h (3 Bft)
24/09/2012 23:40 14,6 C 86 % 1004,4 hPa 0,1 mm 14,0 km/h (3 Bft) S 180 0 min 0 W/m 12,3 C 14,6 C 18,7 km/h (3 Bft)
24/09/2012 23:50 14,6 C 86 % 1004,3 hPa 0,0 mm 8,3 km/h (2 Bft) S-SO 202 0 min 0 W/m 12,3 C 14,6 C 14,0 km/h (3 Bft)
_ Min-Heure 22:20 12:40 05:30 - 12:20 - - - - 11:50 22:20 12:20
Minimum _ 13,8 C 65 % 996,8 hPa - 3,2 km/h (1 Bft) - - - - 10,8 C 13,8 C 3,2 km/h (1 Bft)
_ Max-Heure 15:50 20:50 13:40 15:50 05:00 - - 23:50 23:50 01:30 15:50 05:00
Maximum _ 19,3 C 90 % 1008,1 hPa 127,7 mm 25,6 km/h
S (4 Bft)
- - 0 min 0 W/m 16,1 C 19,3 C 35,6 km/h
S (5 Bft)
Moyenne _ 16,5 C 81 % 1003,1 hPa #128,6 mm 11,3 km/h (2 Bft) SO - #0 min. 0 W/m 13,2 C 16,5 C 17,0 km/h (3 Bft)
Saint Bonnet de Bellac- Haute Vienne - France